Location: �perlecques
(50.8057°N, 2.1521°E)
Time: 02:23:49
(UTC+00:00)

MOS 1 Rocket - Pass Details

Date: 09 April 2020
Orbit: 614 x 830 km, 97.4° (Epoch: 03 June)

Event Time Altitude Azimuth Distance (km) Brightness Sun altitude
Rises 19:14:25 0° 20° (NNE) 3,348 6.8 -6.4°
Reaches altitude 10° 19:17:04 10° 32° (NNE) 2,429 6.0 -6.7°
Maximum altitude 19:21:46 30° 92° (E) 1,466 4.5 -7.4°
Drops below altitude 10° 19:26:29 10° 152° (SSE) 2,432 5.6 -8.1°
Sets 19:29:07 0° 163° (SSE) 3,351 6.4 -8.5°
